HJS-6C

Satellite information

Favourite Embed

Satellite Type and Status

PAYLOADIN ORBIT

Key statistics

Satellite HJS-6C at a glance.

Uptime

257

Days in orbit

Revolutions

≈ 15.4

Per day

Orbit

LEO

Low Earth Orbit

Inclination

55.0

Latest

Satellite identification and parameters

Extended collection of information and parameters for HJS-6C.

Object identification

Identified? True

Debris? False

Object name: HJS-6C

International designator: 2025-067C

Object number (NORAD): 63430

Object ID (CCSDS): 63430

Country: PEOPLES REPUBLIC OF CHINA (PRC)

Current information (Y/N): Y

RCS size: LARGE

Orbital parameters

Period: 93.634 minutes

Inclination: 54.9919 deg

SMA: 6830.429 km

Apoapsis: 457.16 km

Periapsis: 447.427 km

RAAN: 136.1711 deg

Eccentricy: 0.00071248

Argument of periapsis: 198.687 deg

Mean anomaly: 161.3897 deg

Mean motion: 15.37909682 rev/day

Mean motion (dot): 0.00014054 rev/day2

B* drag term: 0.00038134044 1/REarth

Two-line elements (TLE)

Creation date: Dec. 14, 2025, 3:07 a.m.

Reference frame: TEME

Reference center: EARTH

Epoch: Dec. 13, 2025, 4:43 p.m. UTC

TLE line 0: 0 HJS-6C

TLE line 1: 1 63430U 25067C 25347.69711431 .00014054 00000-0 38134-3 0 9995

TLE line 2: 2 63430 54.9919 136.1711 0007125 198.6870 161.3897 15.37909682 39477

Live tracking on map

Real-time ground track for satellite HJS-6C.

In-orbit conjunctions

There are no conjunctions computed for HJS-6C, at the moment. Check back to stay up to date, as we update our databases every day.

Go to all conjunctions

Associated space launch

Officially described as "Satellite-Internet Technology Demonstration Satellites". Probable 4 test satellites for the Chinese state-owned LEO communication satellite constellation SatNet, 2 by Galaxy Space and 2 by Chang Guang Satellite Technology Co.

HJS-6C was lifted into orbit during the mission ‘Long March 2D | 4 x SatNet test satellites’, on board a Long March 2D space rocket.

The launch took place on April 1, 2025, 4 a.m. from Launch Area 94 (SLS-2 / 603).

For more information about the launch, click the button.

Launch to space Long March 2D | 4 x SatNet test satellites
Long March 2D | 4 x SatNet test satellites

Agency: N/A

Status: Launch Successful

Launch date: April 1, 2025, 4 a.m. UTC

Rocket: Long March 2D

Launch pad: Launch Area 94 (SLS-2 / 603)

Location: Jiuquan Satellite Launch Center, People's Republic of China

...

Latest news about this satellite

News about space launch
China launches internet technology test satellites with Long March 2D

China conducted a new launch for a nebulous series of internet technology test satellites early Tuesday. The post China launches internet technology test satellites with Long March 2D appeared first on SpaceNews.

News about space launch
Launch Roundup: Falcon 9 to fly five missions during busy week

Five Falcon 9 missions are scheduled to launch this week, including the first-ever crewed mission… The post Launch Roundup: Falcon 9 to fly five missions during busy week appeared first on NASASpaceFlight.com.


Newsletter sign-up

Weekly statistics, charts and insights to help you stay on top of the space industry.